Location: Korczew
(51.3586°N, 19.4491°E)
Time: 21:33:19
(UTC+00:00)

Cosmos 1125 Rocket - Pass Details

Date: 19 May 2025
Orbit: 753 x 776 km, 74.0° (Epoch: 16 June)

Event Time Altitude Azimuth Distance (km) Brightness Sun altitude
Rises 19:20:41 0° 336° (NNW) 3,269 8.3 -6.6°
Reaches altitude 10° 19:23:06 10° 338° (NNW) 2,338 7.3 -6.8°
Maximum altitude 19:28:25 71° 63° (ENE) 824 3.6 -7.4°
Drops below altitude 10° 19:33:41 10° 148° (SSE) 2,319 5.3 -8.0°
Enters shadow 19:33:49 - 148° (SSE) 2,374 5.4 -8.0°
